sat.trackr.live / text

‹ back to catalog

UNKNOWN

NORAD 82189

UNKNOWN UNKNOWN UNKNOWN

§ Identity

Operator
Country
Launch date
Launch site
Launch vehicle
Mass (kg)
RCS (m²)

External: N2YO · Heavens-Above

§ Orbital elements

Epoch: 2026-09-12T06:52:51.052800Z

Period
100.32 min
Inclination
74.0319°
Eccentricity
0.0015800
Mean motion
14.35372850 rev/d
Perigee alt
762.5 km
Apogee alt
785.1 km
Semi-major
7,152.0 km
B*
6.5011e-5
RAAN
266.6699°
Arg perigee
26.9282°
Mean anomaly
333.2687°
Rev number
67,166

§ Raw data

UNKNOWN1 82189U          26255.28670200  .00000161  00000+0  65011-4 0  99972 82189  74.0319 266.6699 0015800  26.9282 333.2687 14.35372850671667

JSON: /api/v1/satellites/82189 · /tle

For live sub-satellite position, see the globe view (requires WebGL).

§ Visibility from observer

Set your observer location to see the next 7 days of passes ≥ 10°. The values pass through the URL so the page stays shareable.

No JS? Fill the form by hand. The geolocation button needs JavaScript.